Regional Weather Roundup
Issued by NWS

Home | Current Version | Previous Version | Graphics & Text | Print | Product List | Glossary On
Versions: 1 2 3 4 5 6 7 8 9 10 11 12 13 14 15 16 17 18 19 20 21 22 23 24 25 26 27 28 29 30 31 32 33 34 35 36 37 38 39 40 41 42 43 44 45 46 47 48 49 50
000
ASUS43 KFSD 212210
RWRSD

WEATHER ROUNDUP FOR SOUTH DAKOTA
NATIONAL WEATHER SERVICE SIOUX FALLS SD
400 PM CST SAT JAN 21 2017

NOTE: "FAIR" INDICATES FEW OR NO CLOUDS BELOW 12,000 FEET WITH NO
SIGNIFICANT WEATHER AND/OR OBSTRUCTIONS TO VISIBILITY.


SDZ001>005-009-010-012>017-212300-
NORTHWEST AND NORTH CENTRAL SOUTH DAKOTA

CITY           SKY/WX    TMP DP  RH WIND       PRES   REMARKS
BUFFALO          N/A     35  29  78 NW9       29.38R WCI  28
FAITH            N/A     33  28  81 NW13      29.43R WCI  24
MOBRIDGE       CLOUDY    29  25  85 MISG      29.41R FOG
$$

SDZ012>016-024>037-041>051-057-063-072>074-212300-
SOUTHWEST AND SOUTH CENTRAL SOUTH DAKOTA

CITY           SKY/WX    TMP DP  RH WIND       PRES   REMARKS
RAPID CTY ARPT SUNNY     41  29  62 N8        29.45R
PIERRE         CLOUDY    30  26  85 W3        29.44R
CUSTER         PTSUNNY   38  22  52 E3        29.39R
ELLSWORTH AFB  SUNNY     41  32  70 N13       29.44R
PHILIP         SUNNY     40  33  76 W6        29.45R
PINE RIDGE     SUNNY     35  29  78 SW5       29.44R
SPEARFISH      FAIR      39  27  60 NW5       29.45R
WINNER         FAIR      46  32  58 NW12      29.44R
$$

SDZ004>011-016>023-039-040-212300-
NORTHEAST SOUTH DAKOTA

CITY           SKY/WX    TMP DP  RH WIND       PRES   REMARKS
ABERDEEN       CLOUDY    33  26  75 SW3       29.43R
WATERTOWN      CLOUDY    31  31 100 W7        29.39R FOG     WCI  24
BROOKINGS      CLOUDY    32  31  96 W7        29.40R WCI  26
SISSETON         N/A     35  35 100 CALM      29.41R
$$

SDZ017-020-022-023-036>040-048>070-212300-
SOUTHEAST SOUTH DAKOTA

CITY           SKY/WX    TMP DP  RH WIND       PRES   REMARKS
SIOUX FALLS    CLOUDY    32  29  88 W10       29.43R WCI  24
HURON          CLOUDY    31  28  89 NW5       29.44R WCI  26
CHAMBERLAIN    CLOUDY    38  33  81 NW8       29.45R
MITCHELL       CLOUDY    33  30  88 W8        29.46R WCI  26
YANKTON        MOSUNNY   37  30  75 NW9       29.44R
$$

ABBREVIATIONS USED IN REMARKS
   TC - TEMPERATURE IN CELSIUS
  WCI - WIND CHILL INDEX
   HX - HEAT INDEX
  VSB - VISIBILITY





USA.gov is the U.S. government's official web portal to all federal, state and local government web resources and services.